Showing default

OPS 9333 (IDSCS 18), 2864

Orbit data source: Space-Track

OPS 9333 (IDSCS 18), 2864 is a payload satellite owned by SAMSO (US) in GEO that was launched on Sat, 01 Jul 1967 UTC via a TITAN IIIC launch vehicle from the Air Force Eastern Test Range (AFETR). Payload-class satellites include a variety of spacecraft equipped with specific instruments for various scientific and technological missions. These include communications satellites like Starlink; space stations such as the ISS; scientific satellites like the Hubble; Earth observation satellites from companies like Planet Labs, Umbra, and HawkEye 360; GPS; miniature CubeSats for education and research; and military/defense satellites.

Loading next visibility...
Identifier
2864, 1967-066C
Orbit
GEO
Last TLE update
1 day ago
Origin
Manufacturer
Philco-Ford WDL
Mission
Non-operational Defense Communications
Bus & Motor
IDCSP, Unknown motor
Mass
45 kg wet, 45 kg dry
Launch date (UTC)
1967-07-01 (58 years ago)
Launch vehicle
TITAN IIIC
Launch site
Air Force Eastern Test Range (AFETR)
Object type
Payload
Rocket body
Debris
Shape & HBR
Poly, 0.9 m
Radar Cross Section
0.926 m², Medium (>0.1 m² and < 1m²)

Expand to show TLE details & history

TLE from 1 day ago
0 OPS 9333 (IDSCS 18)
1 02864U 67066C   25183.51372069 -.00000042  00000-0  00000-0 0  9994
2 02864   1.9902 107.8952 0057670 217.1569 312.2985  1.09785860127702
Epoch: 2025-07-02T12:19Z
TLE epoch observation values (Epoch: 2025-07-02T12:19:45.467Z)
Latitude
0.36394°
Longitude
171.14577°
Altitude
33,159.405 km
Speed
3.181 km/s
True Right ascension
18h 27m 30s
True Declination
0° 21' 49"
Sunlit
Object was in daylight at epoch
Visualization orbit readout
Latitude
-1.57037°
Longitude
-126.45098°
Altitude
33,091.828 km
Speed
3.187 km/s
Apparent Right ascension
22h 14m 36s
Apparent Declination
-8° 05' 08"
Sunlit
Object is in daylight
Visualization observer readout
Local Sidereal Time
01:43:20
Azimuth
237.544° WSW
Elevation
22.046°
Doppler factor
1
Orbital elements
Apogee altitude
33,544.02 km
Perigee altitude
33,086.199 km
Semi-major axis
39,693.247 km
Eccentricity
0.00577
Inclination
1.9902°
RAAN
107.8952°
Arg. of periapsis
217.1569°
True anomaly
Unknown
Mean anomaly
312.2985°
Eccentric anomaly
Unknown
Mean motion
0.27445 °/min
Orbital period
1,311.7 mins
BSTAR
0
Loading historical data...
2864 neighbors
Loading maneuver chart data...
Loading SW <> Apogee altitude chart data...
Loading historical data...
Loading historical data...
Loading historical data...
Loading historical data...
Loading historical data...
Loading historical data...
Loading historical data...

OPS 9333 (IDSCS 18) Visibility forecast

Observer location: undefined°, undefined°

Span
Click to sort rows by Start time (UTC) header in descending order
Start Az.
Max El. time (UTC)
Max El. Az.
Max El.
End time (UTC)
End Az.
1440 mins2025-07-03 13:56:25.917Z237.529° WSW2025-07-04 13:56:25.917Z197.552° SSW32.492°2025-07-04 13:56:25.917Z197.552° SSW
|